Regional Weather Roundup
Issued by NWS

Home | Current Version | Previous Version | Text Only | Print | Product List | Glossary Off
Versions: 1 2 3 4 5 6 7 8 9 10 11 12 13 14 15 16 17 18 19 20 21 22 23 24 25 26 27 28 29 30 31 32 33 34 35 36 37 38 39 40 41 42 43 44 45 46 47 48 49 50

000
ASUS43 KFSD 220210
RWRSD

WEATHER ROUNDUP FOR SOUTH DAKOTA
NATIONAL WEATHER SERVICE SIOUX FALLS SD
900 PM CDT THU SEP 21 2017

NOTE: "FAIR" INDICATES FEW OR NO CLOUDS BELOW 12,000 FEET WITH NO
SIGNIFICANT WEATHER AND/OR OBSTRUCTIONS TO VISIBILITY.


SDZ001>005-009-010-012>017-220300-
NORTHWEST AND NORTH CENTRAL SOUTH DAKOTA

CITY           SKY/WX    TMP DP  RH WIND       PRES   REMARKS
BUFFALO          N/A     59  37  44 N18       29.74R
FAITH            N/A     63  41  44 N17       29.73R
MOBRIDGE       CLEAR     71  52  50 N18G25    29.67R
$$

SDZ012>016-024>037-041>051-057-063-072>074-220300-
SOUTHWEST AND SOUTH CENTRAL SOUTH DAKOTA

CITY           SKY/WX    TMP DP  RH WIND       PRES   REMARKS
RAPID CTY ARPT CLEAR     64  37  36 N17       29.73R
PIERRE         CLEAR     74  54  49 E7        29.62R
CUSTER         CLEAR     57  35  43 NE10      29.82R
ELLSWORTH AFB  CLEAR     65  38  36 N15       29.74R
PHILIP         CLEAR     71  42  35 N14       29.64R
PINE RIDGE     CLEAR     73  41  31 N15G25    29.66R
SPEARFISH      FAIR      54  43  66 CALM      29.81R
WINNER         FAIR      72  59  63 N3        29.63S
$$

SDZ004>011-016>023-039-040-220300-
NORTHEAST SOUTH DAKOTA

CITY           SKY/WX    TMP DP  RH WIND       PRES   REMARKS
ABERDEEN       CLEAR     69  65  86 E7        29.68R
WATERTOWN      CLEAR     75  68  78 SE7       29.71R
BROOKINGS      CLEAR     75  69  81 SE9       29.72S
SISSETON         N/A     76  71  85 S6        29.70R
$$

SDZ017-020-022-023-036>040-048>070-220300-
SOUTHEAST SOUTH DAKOTA

CITY           SKY/WX    TMP DP  RH WIND       PRES   REMARKS
SIOUX FALLS    CLEAR     80  73  79 SE9       29.71R
HURON          CLEAR     78  67  68 SE10      29.65S
CHAMBERLAIN    CLEAR     77  63  61 NE8       29.64R
MITCHELL       CLEAR     80  69  69 SE7       29.65R
YANKTON        CLEAR     82  72  71 SE13      29.68R
$$

ABBREVIATIONS USED IN REMARKS
   TC - TEMPERATURE IN CELSIUS
  WCI - WIND CHILL INDEX
   HX - HEAT INDEX
  VSB - VISIBILITY




USA.gov is the U.S. government's official web portal to all federal, state and local government web resources and services.